TJS-20

Last updated on Sun Jun 21 2026 00:03:09 GMT+0000 (Coordinated Universal Time)

1 66142U 25238A 26171.01460796 .00000019 00000+0 00000+0 0 9997 2 66142 5.4622 299.5493 0004189 158.1883 238.2077 1.00267297 2361
UTC large
Height (km)
Speed (km/s)
/
Latitude / Longitude
Inclination (degrees)
Orbital Period (minutes)
Azimuth
Elevation
Range (km)
Doppler Factor

Next 0 passes for location: London (51.5072 / 0.1276)

No passes found over London.
TJS-20